Dover AFB, DE

5:52 PM EDT on April 27, 2017 (GMT -0400)
Dover Air Force Base

Weather History for KDOV - August, 2014

Change the Weather History Date:

Saturday, August 23, 2014

  Actual Average Record
Temperature  
Mean Temperature 72 °F -  
Max Temperature 78 °F 83 °F 94 °F (1968)
Min Temperature 66 °F 64 °F 53 °F (1952)
Cooling Degree Days 7    
Growing Degree Days 22 (Base 50)    
Moisture  
Dew Point 66 °F    
Average Humidity 85    
Maximum Humidity 100    
Minimum Humidity 65    
Precipitation  
Precipitation 0.00 in - - ()
Sea Level Pressure  
Sea Level Pressure 30.03 in    
Wind  
Wind Speed 8 mph (NE)    
Max Wind Speed 17 mph    
Max Gust Speed 22 mph    
Visibility 10 miles    
Events      
Averages and records for this station are not official NWS values.
T = Trace of Precipitation, MM = Missing Value Source: NWS Daily Summary

Daily Weather History Graph

Daily Weather History Graph

Search for Another Location

Airport or City:

Trip Planner

Search our weather history database for the weather conditions in past years. The results will help you decide how hot, cold, wet, or windy it might be!

Date:

Astronomy

Aug. 23, 2014 Rise Set
Actual Time 6:22 AM EDT 7:45 PM EDT
Civil Twilight 5:54 AM EDT 8:13 PM EDT
Nautical Twilight 5:20 AM EDT 8:47 PM EDT
Astronomical Twilight 4:45 AM EDT 9:22 PM EDT
Moon 4:36 AM EDT (8/23) 6:29 PM EDT (8/23)
Length of Visible Light 14h 19m
Length of Day
13h 23m
Waning Crescent, 3% of the Moon is Illuminated
Aug 23
Waning Crescent
Aug 25
New
Sep 2
First Quarter
Sep 8
Full
Sep 15
Last Quarter

Hourly Weather History & Observations

Time (EDT) Temp. Dew Point Humidity Pressure Visibility Wind Dir Wind Speed Gust Speed Precip Events Conditions
12:58 AM 67.6 °F 64.4 °F 89% 30.01 in 10.0 mi NNE 4.6 mph - N/A   Partly Cloudy
1:58 AM 67.3 °F 64.9 °F 92% 30.00 in 10.0 mi Variable 2.3 mph - N/A   Clear
2:58 AM 66.7 °F 65.3 °F 95% 30.00 in 10.0 mi North 3.5 mph - N/A   Clear
3:58 AM 67.5 °F 66.9 °F 98% 29.99 in 10.0 mi NNE 5.8 mph - N/A   Clear
4:28 AM 68.0 °F 66.2 °F 94% 29.98 in 10.0 mi NNE 4.6 mph - N/A   Mostly Cloudy
4:53 AM 68.0 °F 66.2 °F 94% 29.98 in 10.0 mi NNE 4.6 mph - N/A   Scattered Clouds
4:58 AM 67.6 °F 67.1 °F 98% 29.99 in 10.0 mi North 4.6 mph - N/A   Mostly Cloudy
5:13 AM 68.0 °F 68.0 °F 100% 29.98 in 10.0 mi NNE 5.8 mph - N/A   Scattered Clouds
5:38 AM 68.0 °F 68.0 °F 100% 29.98 in 10.0 mi NNE 5.8 mph - N/A   Mostly Cloudy
5:53 AM 68.0 °F 68.0 °F 100% 29.99 in 10.0 mi NNE 5.8 mph - N/A   Scattered Clouds
5:58 AM 67.8 °F 67.8 °F 100% 30.00 in 10.0 mi NNE 5.8 mph - N/A   Scattered Clouds
6:03 AM 68.0 °F 68.0 °F 100% 29.99 in 10.0 mi NNE 6.9 mph - N/A   Mostly Cloudy
6:08 AM 68.0 °F 68.0 °F 100% 29.99 in 10.0 mi NNE 6.9 mph - N/A   Scattered Clouds
6:58 AM 68.0 °F 68.0 °F 100% 30.01 in 10.0 mi NNE 5.8 mph - N/A   Mostly Cloudy
7:03 AM 68.0 °F 68.0 °F 100% 30.00 in 10.0 mi NNE 5.8 mph - N/A   Mostly Cloudy
7:08 AM 68.0 °F 68.0 °F 100% 30.01 in 10.0 mi NNE 5.8 mph - N/A   Mostly Cloudy
7:13 AM 68.0 °F 68.0 °F 100% 30.01 in 10.0 mi NNE 5.8 mph - N/A   Mostly Cloudy
7:18 AM 68.0 °F 68.0 °F 100% 30.01 in 10.0 mi NE 5.8 mph - N/A   Mostly Cloudy
7:23 AM 69.8 °F 69.8 °F 100% 30.01 in 10.0 mi NE 5.8 mph - N/A   Scattered Clouds
7:58 AM 70.2 °F 70.2 °F 100% 30.02 in 10.0 mi NE 8.1 mph - N/A   Mostly Cloudy
8:58 AM 72.3 °F 68.2 °F 87% 30.03 in 10.0 mi ENE 11.5 mph - N/A   Partly Cloudy
9:58 AM 74.5 °F 67.8 °F 80% 30.03 in 10.0 mi ENE 15.0 mph - N/A   Partly Cloudy
10:18 AM 75.2 °F 68.0 °F 78% 30.02 in 10.0 mi ENE 15.0 mph - N/A   Mostly Cloudy
10:43 AM 75.2 °F 68.0 °F 78% 30.03 in 10.0 mi ENE 12.7 mph - N/A   Mostly Cloudy
10:58 AM 75.2 °F 68.0 °F 78% 30.04 in 10.0 mi East 15.0 mph - N/A   Mostly Cloudy
11:03 AM 75.2 °F 68.0 °F 78% 30.03 in 10.0 mi East 15.0 mph - N/A   Mostly Cloudy
11:13 AM 75.2 °F 66.2 °F 73% 30.03 in 10.0 mi ENE 17.3 mph - N/A   Mostly Cloudy
11:18 AM 75.2 °F 66.2 °F 73% 30.03 in 10.0 mi East 16.1 mph - N/A   Mostly Cloudy
11:58 AM 76.3 °F 65.7 °F 70% 30.04 in 10.0 mi East 16.1 mph - N/A   Scattered Clouds
12:58 PM 78.1 °F 65.5 °F 65% 30.04 in 10.0 mi East 15.0 mph - N/A   Clear
1:58 PM 75.4 °F 64.8 °F 69% 30.05 in 10.0 mi East 13.8 mph - N/A   Mostly Cloudy
2:58 PM 73.6 °F 64.8 °F 74% 30.05 in 10.0 mi East 12.7 mph - N/A   Overcast
3:18 PM 73.4 °F 66.2 °F 78% 30.03 in 10.0 mi East 11.5 mph - N/A   Light Drizzle
3:30 PM 75.2 °F 66.2 °F 73% 30.03 in 10.0 mi East 13.8 mph 20.7 mph N/A   Mostly Cloudy
3:58 PM 73.8 °F 64.9 °F 74% 30.05 in 10.0 mi East 15.0 mph - 0.00 in   Mostly Cloudy
4:58 PM 72.9 °F 64.0 °F 74% 30.05 in 10.0 mi East 13.8 mph - N/A   Overcast
5:58 PM 72.5 °F 62.4 °F 71% 30.05 in 10.0 mi ENE 12.7 mph - N/A   Mostly Cloudy
6:38 PM 71.6 °F 62.6 °F 73% 30.04 in 10.0 mi East 13.8 mph - N/A   Overcast
6:53 PM 71.6 °F 62.6 °F 73% 30.04 in 10.0 mi ENE 13.8 mph - N/A   Overcast
6:58 PM 71.4 °F 62.2 °F 73% 30.05 in 10.0 mi ENE 15.0 mph - N/A   Overcast
7:58 PM 70.0 °F 62.1 °F 76% 30.06 in 10.0 mi ENE 10.4 mph - N/A   Mostly Cloudy
8:58 PM 69.6 °F 61.9 °F 76% 30.07 in 10.0 mi NE 12.7 mph - N/A   Overcast
9:32 PM 69.8 °F 62.6 °F 78% 30.06 in 10.0 mi ENE 16.1 mph 21.9 mph N/A   Light Drizzle
9:41 PM 68.0 °F 62.6 °F 83% 30.06 in 10.0 mi ENE 12.7 mph - N/A   Overcast
9:58 PM 67.8 °F 62.1 °F 82% 30.08 in 10.0 mi NE 9.2 mph - 0.00 in   Mostly Cloudy
10:58 PM 68.4 °F 63.0 °F 83% 30.09 in 10.0 mi ENE 9.2 mph - N/A   Mostly Cloudy
11:58 PM 67.3 °F 62.8 °F 85% 30.09 in 10.0 mi ENE 8.1 mph - N/A   Mostly Cloudy